Year,Month,Day,Hour,Minute,Value (Times are PST for insolation in W/m^2)
2017,04,24,00,00,0.00
2017,04,24,00,01,0.00
2017,04,24,00,02,0.00
2017,04,24,00,03,0.00
2017,04,24,00,04,0.00
2017,04,24,00,05,0.00
2017,04,24,00,06,0.00
2017,04,24,00,07,0.00
2017,04,24,00,08,0.00
2017,04,24,00,09,0.00
2017,04,24,00,10,0.00
2017,04,24,00,11,0.00
2017,04,24,00,12,0.00
2017,04,24,00,13,0.00
2017,04,24,00,14,0.00
2017,04,24,00,15,0.00
2017,04,24,00,16,0.00
2017,04,24,00,17,0.00
2017,04,24,00,18,0.00
2017,04,24,00,19,0.00
2017,04,24,00,20,0.00
2017,04,24,00,21,0.00
2017,04,24,00,22,0.00
2017,04,24,00,23,0.00
2017,04,24,00,24,0.00
2017,04,24,00,25,0.00
2017,04,24,00,26,0.00
2017,04,24,00,27,0.00
2017,04,24,00,28,0.00
2017,04,24,00,29,0.00
2017,04,24,00,30,0.00
2017,04,24,00,31,0.00
2017,04,24,00,32,0.00
2017,04,24,00,33,0.00
2017,04,24,00,34,0.00
2017,04,24,00,35,0.00
2017,04,24,00,36,0.00
2017,04,24,00,37,0.00
2017,04,24,00,38,0.00
2017,04,24,00,39,0.00
2017,04,24,00,40,0.00
2017,04,24,00,41,0.00
2017,04,24,00,42,0.00
2017,04,24,00,43,0.00
2017,04,24,00,44,0.00
2017,04,24,00,45,0.00
2017,04,24,00,46,0.00
2017,04,24,00,47,0.00
2017,04,24,00,48,0.00
2017,04,24,00,49,0.00
2017,04,24,00,50,0.00
2017,04,24,00,51,0.00
2017,04,24,00,52,0.00
2017,04,24,00,53,0.00
2017,04,24,00,54,0.00
2017,04,24,00,55,0.00
2017,04,24,00,56,0.00
2017,04,24,00,57,0.00
2017,04,24,00,58,0.00
2017,04,24,00,59,0.00
2017,04,24,01,00,0.00
2017,04,24,01,01,0.00
2017,04,24,01,02,0.00
2017,04,24,01,03,0.00
2017,04,24,01,04,0.00
2017,04,24,01,05,0.00
2017,04,24,01,06,0.00
2017,04,24,01,07,0.00
2017,04,24,01,08,0.00
2017,04,24,01,09,0.00
2017,04,24,01,10,0.00
2017,04,24,01,11,0.00
2017,04,24,01,12,0.00
2017,04,24,01,13,0.00
2017,04,24,01,14,0.00
2017,04,24,01,15,0.00
2017,04,24,01,16,0.00
2017,04,24,01,17,0.00
2017,04,24,01,18,0.00
2017,04,24,01,19,0.00
2017,04,24,01,20,0.00
2017,04,24,01,21,0.00
2017,04,24,01,22,0.00
2017,04,24,01,23,0.00
2017,04,24,01,24,0.00
2017,04,24,01,25,0.00
2017,04,24,01,26,0.00
2017,04,24,01,27,0.00
2017,04,24,01,28,0.00
2017,04,24,01,29,0.00
2017,04,24,01,30,0.00
2017,04,24,01,31,0.00
2017,04,24,01,32,0.00
2017,04,24,01,33,0.00
2017,04,24,01,34,0.00
2017,04,24,01,35,0.00
2017,04,24,01,36,0.00
2017,04,24,01,37,0.00
2017,04,24,01,38,0.00
2017,04,24,01,39,0.00
2017,04,24,01,40,0.00
2017,04,24,01,41,0.00
2017,04,24,01,42,0.00
2017,04,24,01,43,0.00
2017,04,24,01,44,0.00
2017,04,24,01,45,0.00
2017,04,24,01,46,0.00
2017,04,24,01,47,0.00
2017,04,24,01,48,0.00
2017,04,24,01,49,0.00
2017,04,24,01,50,0.00
2017,04,24,01,51,0.00
2017,04,24,01,52,0.00
2017,04,24,01,53,0.00
2017,04,24,01,54,0.00
2017,04,24,01,55,0.00
2017,04,24,01,56,0.00
2017,04,24,01,57,0.00
2017,04,24,01,58,0.00
2017,04,24,01,59,0.00
2017,04,24,02,00,0.00
2017,04,24,02,01,0.00
2017,04,24,02,02,0.00
2017,04,24,02,03,0.00
2017,04,24,02,04,0.00
2017,04,24,02,05,0.00
2017,04,24,02,06,0.00
2017,04,24,02,07,0.00
2017,04,24,02,08,0.00
2017,04,24,02,09,0.00
2017,04,24,02,10,0.00
2017,04,24,02,11,0.00
2017,04,24,02,12,0.00
2017,04,24,02,13,0.00
2017,04,24,02,14,0.00
2017,04,24,02,15,0.00
2017,04,24,02,16,0.00
2017,04,24,02,17,0.00
2017,04,24,02,18,0.00
2017,04,24,02,19,0.00
2017,04,24,02,20,0.00
2017,04,24,02,21,0.00
2017,04,24,02,22,0.00
2017,04,24,02,23,0.00
2017,04,24,02,24,0.00
2017,04,24,02,25,0.00
2017,04,24,02,26,0.00
2017,04,24,02,27,0.00
2017,04,24,02,28,0.00
2017,04,24,02,29,0.00
2017,04,24,02,30,0.00
2017,04,24,02,31,0.00
2017,04,24,02,32,0.00
2017,04,24,02,33,0.00
2017,04,24,02,34,0.00
2017,04,24,02,35,0.00
2017,04,24,02,36,0.00
2017,04,24,02,37,0.00
2017,04,24,02,38,0.00
2017,04,24,02,39,0.00
2017,04,24,02,40,0.00
2017,04,24,02,41,0.00
2017,04,24,02,42,0.00
2017,04,24,02,43,0.00
2017,04,24,02,44,0.00
2017,04,24,02,45,0.00
2017,04,24,02,46,0.00
2017,04,24,02,47,0.00
2017,04,24,02,48,0.00
2017,04,24,02,49,0.00
2017,04,24,02,50,0.00
2017,04,24,02,51,0.00
2017,04,24,02,52,0.00
2017,04,24,02,53,0.00
2017,04,24,02,54,0.00
2017,04,24,02,55,0.00
2017,04,24,02,56,0.00
2017,04,24,02,57,0.00
2017,04,24,02,58,0.00
2017,04,24,02,59,0.00
2017,04,24,03,00,0.00
2017,04,24,03,01,0.00
2017,04,24,03,02,0.00
2017,04,24,03,03,0.00
2017,04,24,03,04,0.00
2017,04,24,03,05,0.00
2017,04,24,03,06,0.00
2017,04,24,03,07,0.00
2017,04,24,03,08,0.00
2017,04,24,03,09,0.00
2017,04,24,03,10,0.00
2017,04,24,03,11,0.00
2017,04,24,03,12,0.00
2017,04,24,03,13,0.00
2017,04,24,03,14,0.00
2017,04,24,03,15,0.00
2017,04,24,03,16,0.00
2017,04,24,03,17,0.00
2017,04,24,03,18,0.00
2017,04,24,03,19,0.00
2017,04,24,03,20,0.00
2017,04,24,03,21,0.00
2017,04,24,03,22,0.00
2017,04,24,03,23,0.00
2017,04,24,03,24,0.00
2017,04,24,03,25,0.00
2017,04,24,03,26,0.00
2017,04,24,03,27,0.00
2017,04,24,03,28,0.00
2017,04,24,03,29,0.00
2017,04,24,03,30,0.00
2017,04,24,03,31,0.00
2017,04,24,03,32,0.00
2017,04,24,03,33,0.00
2017,04,24,03,34,0.00
2017,04,24,03,35,0.00
2017,04,24,03,36,0.00
2017,04,24,03,37,0.00
2017,04,24,03,38,0.00
2017,04,24,03,39,0.00
2017,04,24,03,40,0.00
2017,04,24,03,41,0.00
2017,04,24,03,42,0.00
2017,04,24,03,43,0.00
2017,04,24,03,44,0.00
2017,04,24,03,45,0.00
2017,04,24,03,46,0.00
2017,04,24,03,47,0.00
2017,04,24,03,48,0.00
2017,04,24,03,49,0.00
2017,04,24,03,50,0.00
2017,04,24,03,51,0.00
2017,04,24,03,52,0.00
2017,04,24,03,53,0.00
2017,04,24,03,54,0.00
2017,04,24,03,55,0.00
2017,04,24,03,56,0.00
2017,04,24,03,57,0.00
2017,04,24,03,58,0.00
2017,04,24,03,59,0.00
2017,04,24,04,00,0.00
2017,04,24,04,01,0.00
2017,04,24,04,02,0.00
2017,04,24,04,03,0.00
2017,04,24,04,04,0.00
2017,04,24,04,05,0.00
2017,04,24,04,06,0.00
2017,04,24,04,07,0.00
2017,04,24,04,08,0.00
2017,04,24,04,09,0.00
2017,04,24,04,10,0.00
2017,04,24,04,11,0.00
2017,04,24,04,12,0.00
2017,04,24,04,13,0.00
2017,04,24,04,14,0.00
2017,04,24,04,15,0.00
2017,04,24,04,16,0.00
2017,04,24,04,17,0.00
2017,04,24,04,18,0.00
2017,04,24,04,19,0.00
2017,04,24,04,20,0.00
2017,04,24,04,21,0.00
2017,04,24,04,22,0.00
2017,04,24,04,23,0.00
2017,04,24,04,24,0.00
2017,04,24,04,25,0.00
2017,04,24,04,26,0.00
2017,04,24,04,27,0.00
2017,04,24,04,28,0.00
2017,04,24,04,29,0.00
2017,04,24,04,30,0.00
2017,04,24,04,31,0.00
2017,04,24,04,32,0.00
2017,04,24,04,33,0.00
2017,04,24,04,34,0.00
2017,04,24,04,35,0.00
2017,04,24,04,36,0.00
2017,04,24,04,37,0.00
2017,04,24,04,38,0.00
2017,04,24,04,39,0.00
2017,04,24,04,40,0.00
2017,04,24,04,41,0.00
2017,04,24,04,42,0.00
2017,04,24,04,43,0.00
2017,04,24,04,44,0.00
2017,04,24,04,45,0.00
2017,04,24,04,46,0.00
2017,04,24,04,47,0.00
2017,04,24,04,48,0.00
2017,04,24,04,49,0.00
2017,04,24,04,50,0.00
2017,04,24,04,51,0.00
2017,04,24,04,52,0.00
2017,04,24,04,53,0.00
2017,04,24,04,54,0.00
2017,04,24,04,55,0.00
2017,04,24,04,56,0.00
2017,04,24,04,57,0.00
2017,04,24,04,58,0.00
2017,04,24,04,59,0.00
2017,04,24,05,00,0.00
2017,04,24,05,01,0.00
2017,04,24,05,02,0.00
2017,04,24,05,03,0.00
2017,04,24,05,04,0.00
2017,04,24,05,05,0.00
2017,04,24,05,06,0.00
2017,04,24,05,07,0.00
2017,04,24,05,08,0.00
2017,04,24,05,09,0.00
2017,04,24,05,10,0.00
2017,04,24,05,11,0.00
2017,04,24,05,12,0.00
2017,04,24,05,13,0.00
2017,04,24,05,14,0.00
2017,04,24,05,15,0.00
2017,04,24,05,16,0.00
2017,04,24,05,17,0.00
2017,04,24,05,18,0.00
2017,04,24,05,19,0.00
2017,04,24,05,20,0.00
2017,04,24,05,21,0.00
2017,04,24,05,22,0.00
2017,04,24,05,23,0.00
2017,04,24,05,24,0.00
2017,04,24,05,25,0.00
2017,04,24,05,26,0.00
2017,04,24,05,27,0.00
2017,04,24,05,28,0.00
2017,04,24,05,29,0.00
2017,04,24,05,30,0.00
2017,04,24,05,31,0.00
2017,04,24,05,32,0.00
2017,04,24,05,33,0.00
2017,04,24,05,34,0.00
2017,04,24,05,35,0.00
2017,04,24,05,36,0.00
2017,04,24,05,37,0.00
2017,04,24,05,38,0.00
2017,04,24,05,39,0.00
2017,04,24,05,40,0.00
2017,04,24,05,41,0.00
2017,04,24,05,42,0.00
2017,04,24,05,43,0.00
2017,04,24,05,44,0.00
2017,04,24,05,45,0.00
2017,04,24,05,46,0.00
2017,04,24,05,47,0.00
2017,04,24,05,48,0.00
2017,04,24,05,49,0.00
2017,04,24,05,50,0.00
2017,04,24,05,51,0.00
2017,04,24,05,52,0.00
2017,04,24,05,53,0.00
2017,04,24,05,54,0.00
2017,04,24,05,55,0.00
2017,04,24,05,56,0.00
2017,04,24,05,57,0.00
2017,04,24,05,58,0.00
2017,04,24,05,59,0.00
2017,04,24,06,00,0.00
2017,04,24,06,01,0.00
2017,04,24,06,02,0.00
2017,04,24,06,03,0.00
2017,04,24,06,04,0.00
2017,04,24,06,05,0.00
2017,04,24,06,06,0.00
2017,04,24,06,07,0.00
2017,04,24,06,08,0.00
2017,04,24,06,09,0.00
2017,04,24,06,10,0.00
2017,04,24,06,11,0.00
2017,04,24,06,12,0.00
2017,04,24,06,13,2.90
2017,04,24,06,14,5.00
2017,04,24,06,15,5.00
2017,04,24,06,16,5.00
2017,04,24,06,17,5.40
2017,04,24,06,18,7.00
2017,04,24,06,19,7.00
2017,04,24,06,20,7.00
2017,04,24,06,21,8.40
2017,04,24,06,22,9.00
2017,04,24,06,23,11.00
2017,04,24,06,24,12.50
2017,04,24,06,25,14.00
2017,04,24,06,26,14.90
2017,04,24,06,27,17.20
2017,04,24,06,28,18.00
2017,04,24,06,29,18.90
2017,04,24,06,30,19.20
2017,04,24,06,31,21.00
2017,04,24,06,32,21.00
2017,04,24,06,33,21.00
2017,04,24,06,34,21.00
2017,04,24,06,35,21.00
2017,04,24,06,36,21.00
2017,04,24,06,37,21.00
2017,04,24,06,38,21.50
2017,04,24,06,39,23.00
2017,04,24,06,40,23.00
2017,04,24,06,41,23.00
2017,04,24,06,42,24.40
2017,04,24,06,43,25.00
2017,04,24,06,44,25.00
2017,04,24,06,45,25.20
2017,04,24,06,46,26.80
2017,04,24,06,47,28.90
2017,04,24,06,48,31.20
2017,04,24,06,49,32.70
2017,04,24,06,50,33.00
2017,04,24,06,51,33.20
2017,04,24,06,52,35.00
2017,04,24,06,53,35.70
2017,04,24,06,54,37.00
2017,04,24,06,55,37.00
2017,04,24,06,56,37.00
2017,04,24,06,57,38.70
2017,04,24,06,58,40.20
2017,04,24,06,59,42.00
2017,04,24,07,00,42.70
2017,04,24,07,01,44.00
2017,04,24,07,02,45.20
2017,04,24,07,03,46.00
2017,04,24,07,04,46.90
2017,04,24,07,05,47.00
2017,04,24,07,06,47.40
2017,04,24,07,07,49.00
2017,04,24,07,08,49.00
2017,04,24,07,09,49.00
2017,04,24,07,10,50.50
2017,04,24,07,11,52.70
2017,04,24,07,12,56.10
2017,04,24,07,13,58.50
2017,04,24,07,14,60.70
2017,04,24,07,15,63.40
2017,04,24,07,16,67.90
2017,04,24,07,17,74.30
2017,04,24,07,18,82.00
2017,04,24,07,19,90.70
2017,04,24,07,20,91.00
2017,04,24,07,21,99.60
2017,04,24,07,22,118.40
2017,04,24,07,23,121.00
2017,04,24,07,24,122.50
2017,04,24,07,25,121.30
2017,04,24,07,26,112.70
2017,04,24,07,27,106.30
2017,04,24,07,28,105.00
2017,04,24,07,29,118.60
2017,04,24,07,30,145.50
2017,04,24,07,31,157.20
2017,04,24,07,32,150.30
2017,04,24,07,33,154.60
2017,04,24,07,34,153.70
2017,04,24,07,35,158.10
2017,04,24,07,36,157.80
2017,04,24,07,37,155.90
2017,04,24,07,38,169.60
2017,04,24,07,39,183.40
2017,04,24,07,40,174.60
2017,04,24,07,41,178.10
2017,04,24,07,42,188.40
2017,04,24,07,43,201.70
2017,04,24,07,44,204.00
2017,04,24,07,45,206.20
2017,04,24,07,46,200.40
2017,04,24,07,47,181.40
2017,04,24,07,48,158.30
2017,04,24,07,49,144.00
2017,04,24,07,50,145.00
2017,04,24,07,51,155.40
2017,04,24,07,52,155.50
2017,04,24,07,53,137.50
2017,04,24,07,54,125.40
2017,04,24,07,55,125.00
2017,04,24,07,56,125.00
2017,04,24,07,57,125.00
2017,04,24,07,58,126.20
2017,04,24,07,59,127.00
2017,04,24,08,00,127.90
2017,04,24,08,01,128.40
2017,04,24,08,02,132.00
2017,04,24,08,03,132.00
2017,04,24,08,04,133.00
2017,04,24,08,05,134.00
2017,04,24,08,06,134.00
2017,04,24,08,07,134.00
2017,04,24,08,08,135.00
2017,04,24,08,09,135.80
2017,04,24,08,10,139.00
2017,04,24,08,11,138.00
2017,04,24,08,12,138.20
2017,04,24,08,13,140.40
2017,04,24,08,14,141.80
2017,04,24,08,15,139.10
2017,04,24,08,16,139.00
2017,04,24,08,17,139.00
2017,04,24,08,18,139.00
2017,04,24,08,19,140.20
2017,04,24,08,20,141.70
2017,04,24,08,21,143.70
2017,04,24,08,22,143.80
2017,04,24,08,23,141.80
2017,04,24,08,24,140.30
2017,04,24,08,25,138.00
2017,04,24,08,26,135.80
2017,04,24,08,27,131.40
2017,04,24,08,28,124.00
2017,04,24,08,29,118.00
2017,04,24,08,30,118.60
2017,04,24,08,31,123.10
2017,04,24,08,32,130.60
2017,04,24,08,33,140.30
2017,04,24,08,34,144.00
2017,04,24,08,35,162.10
2017,04,24,08,36,176.30
2017,04,24,08,37,183.50
2017,04,24,08,38,184.30
2017,04,24,08,39,183.00
2017,04,24,08,40,180.70
2017,04,24,08,41,175.40
2017,04,24,08,42,172.30
2017,04,24,08,43,173.90
2017,04,24,08,44,173.30
2017,04,24,08,45,169.60
2017,04,24,08,46,167.90
2017,04,24,08,47,174.30
2017,04,24,08,48,183.10
2017,04,24,08,49,187.60
2017,04,24,08,50,187.90
2017,04,24,08,51,201.00
2017,04,24,08,52,192.40
2017,04,24,08,53,198.00
2017,04,24,08,54,208.30
2017,04,24,08,55,228.50
2017,04,24,08,56,301.70
2017,04,24,08,57,334.80
2017,04,24,08,58,269.70
2017,04,24,08,59,252.00
2017,04,24,09,00,238.40
2017,04,24,09,01,207.40
2017,04,24,09,02,189.90
2017,04,24,09,03,189.70
2017,04,24,09,04,194.40
2017,04,24,09,05,221.80
2017,04,24,09,06,237.40
2017,04,24,09,07,235.10
2017,04,24,09,08,242.90
2017,04,24,09,09,230.90
2017,04,24,09,10,243.30
2017,04,24,09,11,234.10
2017,04,24,09,12,229.00
2017,04,24,09,13,273.80
2017,04,24,09,14,369.20
2017,04,24,09,15,389.80
2017,04,24,09,16,377.90
2017,04,24,09,17,355.30
2017,04,24,09,18,347.90
2017,04,24,09,19,299.80
2017,04,24,09,20,272.90
2017,04,24,09,21,272.30
2017,04,24,09,22,283.60
2017,04,24,09,23,276.10
2017,04,24,09,24,279.70
2017,04,24,09,25,269.20
2017,04,24,09,26,250.60
2017,04,24,09,27,252.30
2017,04,24,09,28,247.60
2017,04,24,09,29,252.10
2017,04,24,09,30,262.70
2017,04,24,09,31,270.00
2017,04,24,09,32,299.90
2017,04,24,09,33,355.80
2017,04,24,09,34,367.70
2017,04,24,09,35,370.20
2017,04,24,09,36,449.70
2017,04,24,09,37,489.00
2017,04,24,09,38,341.70
2017,04,24,09,39,341.70
2017,04,24,09,40,396.20
2017,04,24,09,41,447.10
2017,04,24,09,42,419.30
2017,04,24,09,43,427.00
2017,04,24,09,44,531.30
2017,04,24,09,45,553.00
2017,04,24,09,46,530.60
2017,04,24,09,47,468.50
2017,04,24,09,48,499.00
2017,04,24,09,49,503.60
2017,04,24,09,50,544.40
2017,04,24,09,51,591.50
2017,04,24,09,52,594.00
2017,04,24,09,53,583.70
2017,04,24,09,54,494.00
2017,04,24,09,55,547.80
2017,04,24,09,56,670.40
2017,04,24,09,57,694.00
2017,04,24,09,58,551.10
2017,04,24,09,59,494.00
2017,04,24,10,00,417.40
2017,04,24,10,01,358.90
2017,04,24,10,02,334.30
2017,04,24,10,03,290.20
2017,04,24,10,04,281.30
2017,04,24,10,05,276.80
2017,04,24,10,06,276.00
2017,04,24,10,07,258.30
2017,04,24,10,08,254.00
2017,04,24,10,09,249.90
2017,04,24,10,10,247.10
2017,04,24,10,11,244.80
2017,04,24,10,12,241.80
2017,04,24,10,13,236.70
2017,04,24,10,14,229.70
2017,04,24,10,15,225.00
2017,04,24,10,16,225.00
2017,04,24,10,17,226.90
2017,04,24,10,18,230.80
2017,04,24,10,19,234.90
2017,04,24,10,20,238.50
2017,04,24,10,21,241.10
2017,04,24,10,22,244.00
2017,04,24,10,23,250.40
2017,04,24,10,24,259.30
2017,04,24,10,25,267.00
2017,04,24,10,26,272.60
2017,04,24,10,27,274.00
2017,04,24,10,28,271.60
2017,04,24,10,29,266.00
2017,04,24,10,30,260.30
2017,04,24,10,31,255.10
2017,04,24,10,32,251.80
2017,04,24,10,33,252.40
2017,04,24,10,34,256.40
2017,04,24,10,35,263.00
2017,04,24,10,36,272.70
2017,04,24,10,37,284.20
2017,04,24,10,38,301.00
2017,04,24,10,39,319.60
2017,04,24,10,40,342.20
2017,04,24,10,41,351.40
2017,04,24,10,42,355.20
2017,04,24,10,43,356.10
2017,04,24,10,44,350.60
2017,04,24,10,45,342.10
2017,04,24,10,46,335.60
2017,04,24,10,47,335.40
2017,04,24,10,48,338.60
2017,04,24,10,49,339.70
2017,04,24,10,50,344.90
2017,04,24,10,51,339.30
2017,04,24,10,52,333.30
2017,04,24,10,53,328.20
2017,04,24,10,54,329.20
2017,04,24,10,55,335.20
2017,04,24,10,56,351.20
2017,04,24,10,57,402.00
2017,04,24,10,58,373.80
2017,04,24,10,59,361.10
2017,04,24,11,00,362.30
2017,04,24,11,01,371.20
2017,04,24,11,02,386.10
2017,04,24,11,03,399.60
2017,04,24,11,04,411.50
2017,04,24,11,05,436.00
2017,04,24,11,06,457.00
2017,04,24,11,07,457.00
2017,04,24,11,08,473.70
2017,04,24,11,09,459.30
2017,04,24,11,10,455.70
2017,04,24,11,11,466.30
2017,04,24,11,12,461.10
2017,04,24,11,13,415.30
2017,04,24,11,14,396.90
2017,04,24,11,15,386.00
2017,04,24,11,16,377.00
2017,04,24,11,17,372.90
2017,04,24,11,18,371.50
2017,04,24,11,19,374.10
2017,04,24,11,20,378.20
2017,04,24,11,21,383.30
2017,04,24,11,22,386.40
2017,04,24,11,23,387.00
2017,04,24,11,24,387.00
2017,04,24,11,25,386.50
2017,04,24,11,26,385.00
2017,04,24,11,27,385.00
2017,04,24,11,28,386.20
2017,04,24,11,29,387.00
2017,04,24,11,30,387.90
2017,04,24,11,31,401.60
2017,04,24,11,32,415.80
2017,04,24,11,33,437.60
2017,04,24,11,34,447.60
2017,04,24,11,35,441.30
2017,04,24,11,36,438.30
2017,04,24,11,37,430.30
2017,04,24,11,38,434.60
2017,04,24,11,39,443.70
2017,04,24,11,40,452.00
2017,04,24,11,41,464.60
2017,04,24,11,42,478.00
2017,04,24,11,43,478.00
2017,04,24,11,44,475.50
2017,04,24,11,45,469.30
2017,04,24,11,46,471.60
2017,04,24,11,47,443.90
2017,04,24,11,48,433.60
2017,04,24,11,49,429.80
2017,04,24,11,50,427.60
2017,04,24,11,51,439.00
2017,04,24,11,52,441.00
2017,04,24,11,53,434.70
2017,04,24,11,54,413.60
2017,04,24,11,55,412.90
2017,04,24,11,56,421.10
2017,04,24,11,57,434.00
2017,04,24,11,58,488.50
2017,04,24,11,59,531.20
2017,04,24,12,00,810.00
2017,04,24,12,01,685.40
2017,04,24,12,02,456.10
2017,04,24,12,03,444.70
2017,04,24,12,04,430.90
2017,04,24,12,05,428.70
2017,04,24,12,06,434.60
2017,04,24,12,07,454.00
2017,04,24,12,08,496.00
2017,04,24,12,09,496.00
2017,04,24,12,10,452.60
2017,04,24,12,11,406.80
2017,04,24,12,12,395.00
2017,04,24,12,13,396.50
2017,04,24,12,14,406.50
2017,04,24,12,15,423.10
2017,04,24,12,16,430.40
2017,04,24,12,17,450.60
2017,04,24,12,18,462.00
2017,04,24,12,19,462.00
2017,04,24,12,20,478.70
2017,04,24,12,21,696.00
2017,04,24,12,22,696.00
2017,04,24,12,23,875.70
2017,04,24,12,24,1083.00
2017,04,24,12,25,962.10
2017,04,24,12,26,991.90
2017,04,24,12,27,1024.80
2017,04,24,12,28,1030.90
2017,04,24,12,29,1029.50
2017,04,24,12,30,1015.40
2017,04,24,12,31,1011.90
2017,04,24,12,32,1014.00
2017,04,24,12,33,405.40
2017,04,24,12,34,220.20
2017,04,24,12,35,211.40
2017,04,24,12,36,213.30
2017,04,24,12,37,215.90
2017,04,24,12,38,219.20
2017,04,24,12,39,217.10
2017,04,24,12,40,211.70
2017,04,24,12,41,203.50
2017,04,24,12,42,199.00
2017,04,24,12,43,195.20
2017,04,24,12,44,186.60
2017,04,24,12,45,185.00
2017,04,24,12,46,185.70
2017,04,24,12,47,191.00
2017,04,24,12,48,199.80
2017,04,24,12,49,212.70
2017,04,24,12,50,233.60
2017,04,24,12,51,242.60
2017,04,24,12,52,250.80
2017,04,24,12,53,297.80
2017,04,24,12,54,311.00
2017,04,24,12,55,311.00
2017,04,24,12,56,311.00
2017,04,24,12,57,558.20
2017,04,24,12,58,1028.00
2017,04,24,12,59,929.90
2017,04,24,13,00,870.00
2017,04,24,13,01,650.20
2017,04,24,13,02,588.00
2017,04,24,13,03,525.90
2017,04,24,13,04,320.10
2017,04,24,13,05,295.00
2017,04,24,13,06,295.00
2017,04,24,13,07,914.30
2017,04,24,13,08,1181.00
2017,04,24,13,09,1185.00
2017,04,24,13,10,1016.60
2017,04,24,13,11,393.50
2017,04,24,13,12,377.40
2017,04,24,13,13,362.80
2017,04,24,13,14,360.60
2017,04,24,13,15,371.40
2017,04,24,13,16,389.40
2017,04,24,13,17,390.00
2017,04,24,13,18,679.70
2017,04,24,13,19,1213.80
2017,04,24,13,20,1144.60
2017,04,24,13,21,1162.60
2017,04,24,13,22,1207.10
2017,04,24,13,23,1270.80
2017,04,24,13,24,1273.00
2017,04,24,13,25,966.80
2017,04,24,13,26,377.60
2017,04,24,13,27,364.90
2017,04,24,13,28,365.60
2017,04,24,13,29,380.20
2017,04,24,13,30,393.90
2017,04,24,13,31,399.20
2017,04,24,13,32,406.00
2017,04,24,13,33,711.60
2017,04,24,13,34,980.00
2017,04,24,13,35,944.00
2017,04,24,13,36,944.00
2017,04,24,13,37,879.80
2017,04,24,13,38,326.90
2017,04,24,13,39,324.70
2017,04,24,13,40,333.80
2017,04,24,13,41,405.00
2017,04,24,13,42,429.00
2017,04,24,13,43,851.40
2017,04,24,13,44,969.10
2017,04,24,13,45,1031.00
2017,04,24,13,46,987.60
2017,04,24,13,47,947.00
2017,04,24,13,48,947.00
2017,04,24,13,49,947.00
2017,04,24,13,50,947.00
2017,04,24,13,51,960.10
2017,04,24,13,52,1059.30
2017,04,24,13,53,1019.80
2017,04,24,13,54,1025.70
2017,04,24,13,55,1018.00
2017,04,24,13,56,1018.00
2017,04,24,13,57,996.60
2017,04,24,13,58,1011.80
2017,04,24,13,59,1055.00
2017,04,24,14,00,1101.80
2017,04,24,14,01,1117.20
2017,04,24,14,02,1129.00
2017,04,24,14,03,1129.00
2017,04,24,14,04,1129.00
2017,04,24,14,05,1129.00
2017,04,24,14,06,962.20
2017,04,24,14,07,438.00
2017,04,24,14,08,438.00
2017,04,24,14,09,438.00
2017,04,24,14,10,932.60
2017,04,24,14,11,1089.60
2017,04,24,14,12,1099.40
2017,04,24,14,13,1013.00
2017,04,24,14,14,798.90
2017,04,24,14,15,403.10
2017,04,24,14,16,415.00
2017,04,24,14,17,415.00
2017,04,24,14,18,401.80
2017,04,24,14,19,349.80
2017,04,24,14,20,322.20
2017,04,24,14,21,325.40
2017,04,24,14,22,331.90
2017,04,24,14,23,331.50
2017,04,24,14,24,324.20
2017,04,24,14,25,322.00
2017,04,24,14,26,327.80
2017,04,24,14,27,340.30
2017,04,24,14,28,360.40
2017,04,24,14,29,361.40
2017,04,24,14,30,353.80
2017,04,24,14,31,354.40
2017,04,24,14,32,368.80
2017,04,24,14,33,415.80
2017,04,24,14,34,448.00
2017,04,24,14,35,448.00
2017,04,24,14,36,412.30
2017,04,24,14,37,355.80
2017,04,24,14,38,350.20
2017,04,24,14,39,344.40
2017,04,24,14,40,331.10
2017,04,24,14,41,321.40
2017,04,24,14,42,327.00
2017,04,24,14,43,327.00
2017,04,24,14,44,328.80
2017,04,24,14,45,331.40
2017,04,24,14,46,330.30
2017,04,24,14,47,329.00
2017,04,24,14,48,328.50
2017,04,24,14,49,328.70
2017,04,24,14,50,332.00
2017,04,24,14,51,509.60
2017,04,24,14,52,635.00
2017,04,24,14,53,635.00
2017,04,24,14,54,417.30
2017,04,24,14,55,378.10
2017,04,24,14,56,389.00
2017,04,24,14,57,425.00
2017,04,24,14,58,425.00
2017,04,24,14,59,425.00
2017,04,24,15,00,425.00
2017,04,24,15,01,425.00
2017,04,24,15,02,449.00
2017,04,24,15,03,546.50
2017,04,24,15,04,510.60
2017,04,24,15,05,457.00
2017,04,24,15,06,457.00
2017,04,24,15,07,423.60
2017,04,24,15,08,418.00
2017,04,24,15,09,544.20
2017,04,24,15,10,997.30
2017,04,24,15,11,997.80
2017,04,24,15,12,1020.90
2017,04,24,15,13,1031.00
2017,04,24,15,14,1048.60
2017,04,24,15,15,1049.10
2017,04,24,15,16,906.40
2017,04,24,15,17,342.10
2017,04,24,15,18,308.00
2017,04,24,15,19,411.80
2017,04,24,15,20,485.00
2017,04,24,15,21,406.40
2017,04,24,15,22,390.00
2017,04,24,15,23,475.70
2017,04,24,15,24,745.00
2017,04,24,15,25,542.20
2017,04,24,15,26,319.10
2017,04,24,15,27,323.70
2017,04,24,15,28,343.40
2017,04,24,15,29,357.40
2017,04,24,15,30,406.00
2017,04,24,15,31,406.00
2017,04,24,15,32,406.00
2017,04,24,15,33,406.00
2017,04,24,15,34,893.30
2017,04,24,15,35,1079.00
2017,04,24,15,36,1079.00
2017,04,24,15,37,930.90
2017,04,24,15,38,378.30
2017,04,24,15,39,363.40
2017,04,24,15,40,367.00
2017,04,24,15,41,367.00
2017,04,24,15,42,367.00
2017,04,24,15,43,434.90
2017,04,24,15,44,1023.00
2017,04,24,15,45,1023.00
2017,04,24,15,46,660.00
2017,04,24,15,47,267.50
2017,04,24,15,48,259.20
2017,04,24,15,49,253.60
2017,04,24,15,50,244.20
2017,04,24,15,51,227.10
2017,04,24,15,52,219.90
2017,04,24,15,53,217.00
2017,04,24,15,54,214.10
2017,04,24,15,55,208.70
2017,04,24,15,56,206.10
2017,04,24,15,57,201.60
2017,04,24,15,58,196.00
2017,04,24,15,59,192.60
2017,04,24,16,00,192.50
2017,04,24,16,01,194.20
2017,04,24,16,02,201.40
2017,04,24,16,03,213.90
2017,04,24,16,04,236.30
2017,04,24,16,05,237.00
2017,04,24,16,06,237.00
2017,04,24,16,07,237.00
2017,04,24,16,08,237.00
2017,04,24,16,09,673.70
2017,04,24,16,10,831.40
2017,04,24,16,11,824.60
2017,04,24,16,12,831.70
2017,04,24,16,13,835.60
2017,04,24,16,14,839.80
2017,04,24,16,15,847.00
2017,04,24,16,16,847.00
2017,04,24,16,17,871.10
2017,04,24,16,18,882.30
2017,04,24,16,19,887.00
2017,04,24,16,20,892.40
2017,04,24,16,21,902.40
2017,04,24,16,22,911.00
2017,04,24,16,23,911.00
2017,04,24,16,24,719.00
2017,04,24,16,25,705.90
2017,04,24,16,26,870.00
2017,04,24,16,27,870.00
2017,04,24,16,28,870.00
2017,04,24,16,29,870.00
2017,04,24,16,30,576.00
2017,04,24,16,31,464.00
2017,04,24,16,32,498.30
2017,04,24,16,33,944.00
2017,04,24,16,34,944.00
2017,04,24,16,35,944.00
2017,04,24,16,36,944.00
2017,04,24,16,37,944.00
2017,04,24,16,38,519.40
2017,04,24,16,39,372.60
2017,04,24,16,40,357.90
2017,04,24,16,41,367.30
2017,04,24,16,42,330.00
2017,04,24,16,43,330.00
2017,04,24,16,44,330.00
2017,04,24,16,45,270.00
2017,04,24,16,46,263.80
2017,04,24,16,47,322.10
2017,04,24,16,48,288.10
2017,04,24,16,49,334.00
2017,04,24,16,50,287.70
2017,04,24,16,51,246.30
2017,04,24,16,52,317.60
2017,04,24,16,53,282.70
2017,04,24,16,54,223.00
2017,04,24,16,55,223.00
2017,04,24,16,56,214.20
2017,04,24,16,57,175.90
2017,04,24,16,58,216.00
2017,04,24,16,59,236.00
2017,04,24,17,00,614.40
2017,04,24,17,01,617.50
2017,04,24,17,02,609.60
2017,04,24,17,03,601.80
2017,04,24,17,04,593.90
2017,04,24,17,05,586.70
2017,04,24,17,06,582.40
2017,04,24,17,07,577.80
2017,04,24,17,08,573.80